Tracking 34408 objects as of 14-Jun-2026
HD Live streaming from Space Station
objects crossing your sky now

THORAD AGENA D DEB

Track THORAD AGENA D DEB now!
10-day predictions


NORAD ID: 4640
Int'l Code: 1970-025Y
Perigee: 1,030.4 km
Apogee: 1,208.4 km
Inclination: 100.0 °
Period: 107.5 minutes
Semi major axis: 7490 km
RCS: 0.0947 m2 (small)
Launch date: April 8, 1970
Source: United States (US)
Launch site: AIR FORCE WESTERN TEST RANGE (AFWTR)

Note: This is SATELLITE DEBRIS
Your satellite tracking list
Your tracking list is empty




NASA's NSSDC Master Catalog

Two Line Element Set (TLE):
1  4640U 70025Y   26165.11830391  .00000325  00000-0  66065-3 0  9990
2  4640 100.0386 285.7360 0118859 319.5095 221.3767 13.39196676731672
Source of the keplerian elements: AFSPC